Radiation Dose at Monitoring Post of Fukushima Daini Nuclear Power Station
Date,Time,MP-1(microSv/h),MP-2(microSv/h),MP-3(microSv/h),MP-4(microSv/h),MP-5(microSv/h),MP-6(microSv/h),MP-7(microSv/h),Wind Direction,Wind Velocity(m/s),Rain
2015/12/17,00:00,0.456,0.269,0.478,0.437,0.421,0.219,0.192,north-northwest,6.8,No
2015/12/17,00:10,0.455,0.270,0.482,0.435,0.419,0.220,0.192,north,6.5,No
2015/12/17,00:20,0.455,0.269,0.479,0.437,0.419,0.220,0.192,north,5.6,No
2015/12/17,00:30,0.455,0.270,0.480,0.437,0.421,0.219,0.191,north-northwest,6.1,No
2015/12/17,00:40,0.454,0.269,0.481,0.436,0.421,0.220,0.192,north-northwest,4.8,No
2015/12/17,00:50,0.457,0.269,0.477,0.439,0.421,0.220,0.191,north-northwest,4.2,No
2015/12/17,01:00,0.453,0.270,0.481,0.436,0.421,0.220,0.193,north-northwest,3.3,No
2015/12/17,01:10,0.456,0.270,0.479,0.439,0.421,0.220,0.191,north,5.7,No
2015/12/17,01:20,0.456,0.269,0.479,0.437,0.418,0.220,0.193,north,5.4,No
2015/12/17,01:30,0.455,0.270,0.480,0.436,0.421,0.220,0.191,north-northwest,6.1,No
2015/12/17,01:40,0.457,0.270,0.479,0.438,0.421,0.221,0.193,north-northwest,5.9,No
2015/12/17,01:50,0.455,0.269,0.481,0.437,0.420,0.219,0.192,north-northwest,7.5,No
2015/12/17,02:00,0.457,0.270,0.480,0.436,0.423,0.220,0.193,north-northwest,8.8,No
2015/12/17,02:10,0.457,0.270,0.480,0.437,0.421,0.221,0.192,north-northwest,6.2,No
2015/12/17,02:20,0.456,0.269,0.483,0.436,0.420,0.220,0.193,north,7.0,No
2015/12/17,02:30,0.455,0.270,0.480,0.437,0.421,0.221,0.194,north-northwest,6.5,No
2015/12/17,02:40,0.456,0.270,0.479,0.437,0.422,0.221,0.193,north-northwest,7.4,No
2015/12/17,02:50,0.455,0.270,0.483,0.437,0.419,0.221,0.192,north-northwest,6.4,No
2015/12/17,03:00,0.457,0.270,0.479,0.438,0.422,0.220,0.192,north,6.5,No
2015/12/17,03:10,0.457,0.271,0.479,0.439,0.421,0.220,0.192,north-northwest,5.7,No
2015/12/17,03:20,0.454,0.269,0.482,0.435,0.421,0.220,0.194,north,6.9,No
2015/12/17,03:30,0.457,0.269,0.478,0.438,0.421,0.221,0.192,north,6.9,No
2015/12/17,03:40,0.454,0.270,0.479,0.437,0.421,0.220,0.192,north-northwest,6.7,No
2015/12/17,03:50,0.456,0.270,0.481,0.437,0.419,0.220,0.193,north-northwest,5.0,No
2015/12/17,04:00,0.457,0.269,0.481,0.438,0.422,0.220,0.192,north,3.8,No
2015/12/17,04:10,0.453,0.271,0.482,0.436,0.421,0.220,0.193,north,5.1,No
2015/12/17,04:20,0.456,0.271,0.480,0.435,0.418,0.221,0.193,north,6.3,No
2015/12/17,04:30,0.458,0.269,0.480,0.438,0.422,0.220,0.192,north,7.1,No
2015/12/17,04:40,0.455,0.271,0.482,0.436,0.421,0.219,0.192,north,6.2,No
2015/12/17,04:50,0.458,0.270,0.479,0.436,0.419,0.221,0.193,north-northwest,6.4,No
2015/12/17,05:00,0.457,0.269,0.481,0.437,0.420,0.221,0.193,north-northwest,7.2,No
2015/12/17,05:10,0.455,0.269,0.481,0.435,0.420,0.220,0.192,north-northwest,6.8,No
2015/12/17,05:20,0.458,0.271,0.480,0.437,0.421,0.220,0.192,north-northwest,7.8,No
2015/12/17,05:30,0.456,0.270,0.480,0.437,0.421,0.221,0.192,north-northwest,6.7,No
2015/12/17,05:40,0.454,0.269,0.481,0.435,0.420,0.219,0.193,north-northwest,6.8,No
2015/12/17,05:50,0.458,0.271,0.481,0.435,0.419,0.220,0.192,north,6.2,No
2015/12/17,06:00,0.457,0.270,0.481,0.437,0.421,0.220,0.192,north-northwest,7.3,No
2015/12/17,06:10,0.455,0.270,0.483,0.436,0.422,0.220,0.192,north-northwest,6.7,No
2015/12/17,06:20,0.458,0.270,0.478,0.437,0.420,0.220,0.193,north,4.7,No
2015/12/17,06:30,0.456,0.271,0.481,0.437,0.423,0.221,0.193,north,4.6,No
2015/12/17,06:40,0.456,0.270,0.481,0.435,0.422,0.220,0.192,north,4.6,No
2015/12/17,06:50,0.458,0.270,0.480,0.436,0.420,0.221,0.193,north,5.7,No
2015/12/17,07:00,0.456,0.271,0.480,0.439,0.422,0.220,0.193,north,7.0,Yes
2015/12/17,07:10,0.456,0.270,0.480,0.435,0.420,0.221,0.193,north-northwest,5.9,No
2015/12/17,07:20,0.459,0.271,0.479,0.437,0.422,0.221,0.193,north-northwest,4.3,Yes
2015/12/17,07:30,0.455,0.271,0.482,0.436,0.419,0.221,0.194,northwest,3.7,Yes
2015/12/17,07:40,0.456,0.270,0.481,0.436,0.422,0.221,0.194,north-northwest,3.1,No
2015/12/17,07:50,0.456,0.272,0.480,0.437,0.422,0.221,0.193,north-northwest,3.0,No
2015/12/17,08:00,0.456,0.270,0.482,0.436,0.421,0.222,0.193,north,3.6,No
2015/12/17,08:10,0.456,0.271,0.482,0.438,0.423,0.220,0.193,north,2.6,No
2015/12/17,08:20,0.458,0.269,0.481,0.439,0.422,0.221,0.193,north,2.7,No
2015/12/17,08:30,0.455,0.271,0.482,0.435,0.420,0.220,0.192,north,2.2,No
2015/12/17,08:40,0.456,0.270,0.479,0.437,0.422,0.221,0.193,north,3.0,No
2015/12/17,08:50,0.458,0.270,0.482,0.437,0.422,0.221,0.193,north,3.5,No
2015/12/17,09:00,0.454,0.271,0.482,0.437,0.419,0.222,0.193,north-northeast,3.5,No
2015/12/17,09:10,0.457,0.271,0.478,0.437,0.422,0.222,0.193,north,5.6,No
2015/12/17,09:20,0.457,0.270,0.483,0.439,0.422,0.221,0.194,north,4.8,No
2015/12/17,09:30,0.455,0.271,0.483,0.437,0.419,0.220,0.193,north,4.0,No
2015/12/17,09:40,0.459,0.271,0.479,0.438,0.422,0.221,0.194,north,2.9,No
2015/12/17,09:50,0.456,0.269,0.485,0.439,0.422,0.220,0.194,north,3.9,No
2015/12/17,10:00,0.455,0.270,0.480,0.437,0.420,0.221,0.193,north,3.1,No
2015/12/17,10:10,0.459,0.272,0.480,0.439,0.422,0.222,0.193,north,4.8,No
2015/12/17,10:20,0.455,0.269,0.483,0.437,0.422,0.221,0.193,north-northwest,3.7,No
2015/12/17,10:30,0.457,0.271,0.480,0.436,0.420,0.221,0.193,north,4.7,No
2015/12/17,10:40,0.457,0.271,0.481,0.437,0.422,0.223,0.193,north,3.9,No
2015/12/17,10:50,0.457,0.271,0.482,0.436,0.419,0.222,0.194,north-northwest,2.9,No
2015/12/17,11:00,0.457,0.271,0.479,0.439,0.421,0.221,0.194,northwest,4.1,No
2015/12/17,11:10,0.455,0.269,0.483,0.436,0.423,0.222,0.193,west,3.5,No
2015/12/17,11:20,0.457,0.271,0.480,0.437,0.421,0.221,0.194,west-northwest,2.5,No
2015/12/17,11:30,0.457,0.270,0.481,0.436,0.422,0.222,0.193,west,2.4,No
2015/12/17,11:40,0.455,0.269,0.481,0.436,0.420,0.223,0.193,northwest,1.1,No
2015/12/17,11:50,0.459,0.272,0.481,0.439,0.425,0.221,0.193,north,0.9,No
2015/12/17,12:00,0.457,0.269,0.483,0.438,0.423,0.223,0.194,northeast,2.8,No
2015/12/17,12:10,0.458,0.271,0.480,0.439,0.422,0.221,0.193,north,1.6,No
2015/12/17,12:20,0.455,0.270,0.483,0.435,0.422,0.222,0.194,northeast,3.7,No
2015/12/17,12:30,0.456,0.269,0.479,0.438,0.421,0.222,0.193,northeast,2.7,No
2015/12/17,12:40,0.458,0.271,0.481,0.437,0.425,0.223,0.193,northeast,3.2,No
2015/12/17,12:50,0.455,0.270,0.483,0.438,0.423,0.222,0.193,northeast,4.0,No
2015/12/17,13:00,0.459,0.270,0.481,0.439,0.424,0.221,0.194,east-northeast,3.8,No
2015/12/17,13:10,0.458,0.271,0.485,0.439,0.423,0.222,0.194,east,2.6,No
2015/12/17,13:20,0.456,0.271,0.480,0.440,0.422,0.222,0.194,east,2.3,No
2015/12/17,13:30,0.457,0.269,0.485,0.437,0.424,0.222,0.194,east-southeast,1.7,No
2015/12/17,13:40,0.455,0.268,0.478,0.440,0.421,0.223,0.193,southeast,1.6,No
2015/12/17,13:50,0.458,0.270,0.481,0.437,0.422,0.222,0.195,south-southeast,1.5,No
2015/12/17,14:00,0.455,0.271,0.481,0.438,0.424,0.222,0.195,southeast,1.0,No
2015/12/17,14:10,0.456,0.270,0.483,0.438,0.422,0.221,0.194,west-southwest,1.0,No
2015/12/17,14:20,0.456,0.270,0.481,0.439,0.425,0.222,0.193,northwest,1.9,No
2015/12/17,14:30,0.456,0.272,0.481,0.440,0.422,0.222,0.195,north-northwest,5.4,No
2015/12/17,14:40,0.460,0.271,0.483,0.438,0.423,0.221,0.194,north-northwest,7.2,No
2015/12/17,14:50,0.456,0.273,0.482,0.441,0.423,0.223,0.193,north-northwest,8.5,No
2015/12/17,15:00,0.458,0.272,0.484,0.438,0.423,0.222,0.195,north-northwest,7.1,No
2015/12/17,15:10,0.457,0.271,0.485,0.440,0.423,0.223,0.195,north-northwest,6.9,No
2015/12/17,15:20,0.458,0.271,0.482,0.441,0.426,0.222,0.194,north-northwest,5.9,No
2015/12/17,15:30,0.459,0.271,0.485,0.439,0.423,0.222,0.195,north,4.4,No
2015/12/17,15:40,0.461,0.272,0.484,0.440,0.424,0.222,0.195,north-northwest,5.0,No
2015/12/17,15:50,0.457,0.272,0.483,0.441,0.424,0.222,0.195,north-northwest,4.2,No
2015/12/17,16:00,0.461,0.271,0.486,0.439,0.423,0.223,0.195,north-northwest,3.7,No
2015/12/17,16:10,0.458,0.272,0.482,0.439,0.422,0.222,0.195,north-northwest,5.2,No
2015/12/17,16:20,0.457,0.272,0.481,0.442,0.426,0.221,0.195,north-northwest,5.4,No
2015/12/17,16:30,0.458,0.272,0.486,0.439,0.422,0.223,0.194,north-northwest,4.1,No
2015/12/17,16:40,0.459,0.271,0.484,0.439,0.421,0.222,0.194,north-northwest,4.9,No
2015/12/17,16:50,0.456,0.270,0.482,0.441,0.422,0.222,0.196,north-northwest,5.0,No
2015/12/17,17:00,0.458,0.271,0.486,0.440,0.422,0.221,0.195,north-northwest,5.7,No
2015/12/17,17:10,0.458,0.272,0.485,0.439,0.422,0.221,0.194,north-northwest,6.3,No
2015/12/17,17:20,0.458,0.272,0.484,0.439,0.423,0.222,0.195,north-northwest,4.5,No
2015/12/17,17:30,0.458,0.273,0.486,0.439,0.423,0.222,0.193,north-northwest,5.0,No
2015/12/17,17:40,0.460,0.271,0.484,0.439,0.423,0.224,0.195,north-northwest,5.5,No
2015/12/17,17:50,0.458,0.272,0.483,0.437,0.421,0.221,0.194,north-northwest,5.4,No
2015/12/17,18:00,0.456,0.271,0.484,0.439,0.419,0.223,0.194,north-northwest,5.5,No
2015/12/17,18:10,0.459,0.272,0.484,0.439,0.423,0.224,0.195,north-northwest,4.0,No
2015/12/17,18:20,0.457,0.271,0.482,0.439,0.422,0.223,0.194,north-northwest,4.6,No
2015/12/17,18:30,0.458,0.271,0.482,0.439,0.422,0.224,0.195,northwest,6.8,No
2015/12/17,18:40,0.459,0.272,0.484,0.441,0.423,0.222,0.195,northwest,6.5,No
2015/12/17,18:50,0.458,0.270,0.484,0.440,0.424,0.222,0.193,northwest,6.4,No
2015/12/17,19:00,0.457,0.272,0.484,0.438,0.423,0.222,0.194,northwest,4.8,No
2015/12/17,19:10,0.457,0.272,0.483,0.439,0.422,0.221,0.195,northwest,5.2,No
2015/12/17,19:20,0.456,0.271,0.484,0.440,0.421,0.222,0.194,northwest,4.9,No
2015/12/17,19:30,0.458,0.272,0.484,0.440,0.422,0.223,0.194,northwest,5.3,No
2015/12/17,19:40,0.456,0.271,0.482,0.440,0.423,0.223,0.194,northwest,4.4,No
2015/12/17,19:50,0.456,0.271,0.485,0.441,0.422,0.222,0.195,northwest,3.7,No
2015/12/17,20:00,0.456,0.271,0.483,0.440,0.422,0.223,0.194,northwest,3.0,No
2015/12/17,20:10,0.457,0.272,0.484,0.438,0.422,0.223,0.194,northwest,4.7,No
2015/12/17,20:20,0.456,0.270,0.483,0.439,0.423,0.222,0.195,northwest,3.5,No
2015/12/17,20:30,0.456,0.271,0.482,0.440,0.422,0.223,0.195,west-northwest,1.7,No
2015/12/17,20:40,0.456,0.272,0.482,0.439,0.421,0.222,0.194,northwest,3.0,No
2015/12/17,20:50,0.457,0.272,0.481,0.441,0.422,0.223,0.195,north,2.6,No
2015/12/17,21:00,0.458,0.271,0.485,0.439,0.423,0.223,0.194,northwest,2.5,No
2015/12/17,21:10,0.455,0.271,0.484,0.439,0.422,0.223,0.195,west-northwest,2.7,No
2015/12/17,21:20,0.456,0.272,0.484,0.440,0.421,0.222,0.194,north,2.1,No
2015/12/17,21:30,0.456,0.271,0.482,0.440,0.421,0.222,0.193,northwest,1.1,No
2015/12/17,21:40,0.455,0.272,0.485,0.438,0.422,0.223,0.195,north,1.8,No
2015/12/17,21:50,0.455,0.271,0.483,0.440,0.422,0.223,0.194,north-northwest,2.2,No
2015/12/17,22:00,0.457,0.271,0.484,0.441,0.419,0.221,0.193,northwest,4.1,No
2015/12/17,22:10,0.456,0.271,0.482,0.439,0.420,0.222,0.193,northwest,5.7,No
2015/12/17,22:20,0.457,0.273,0.484,0.438,0.422,0.221,0.195,northwest,8.7,No
2015/12/17,22:30,0.457,0.272,0.483,0.438,0.421,0.221,0.193,northwest,10.6,No
2015/12/17,22:40,0.457,0.270,0.482,0.438,0.422,0.223,0.195,west-northwest,14.2,No
2015/12/17,22:50,0.456,0.270,0.483,0.439,0.420,0.222,0.194,west-northwest,13.9,No
2015/12/17,23:00,0.457,0.271,0.484,0.437,0.422,0.223,0.194,west-northwest,12.0,No
2015/12/17,23:10,0.456,0.270,0.483,0.440,0.421,0.221,0.193,west-northwest,14.2,No
2015/12/17,23:20,0.459,0.271,0.482,0.439,0.421,0.223,0.193,west,11.8,No
2015/12/17,23:30,0.458,0.270,0.483,0.438,0.420,0.221,0.194,west,8.7,No
2015/12/17,23:40,0.458,0.271,0.484,0.437,0.421,0.222,0.193,west,6.6,No
2015/12/17,23:50,0.458,0.270,0.481,0.438,0.422,0.222,0.194,west,4.6,No
